Location: Poughquag
(41.6090°N, 73.6820°W)
Time: 04:21:29
(UTC-05:00)

STRAND 1 - Visible Passes

Search period start: 28 November 2023 00:00
Search period end: 08 December 2023 00:00
Orbit: 765 x 779 km, 98.4° (Epoch: 27 November)

Date Brightness Start Highest point End Pass type
(mag) Time Alt. Az. Time Alt. Az. Time Alt. Az.
28 Nov ? 04:57:27 10° SE 05:02:10 39° ENE 05:06:53 10° N visible
28 Nov ? 17:09:02 10° ENE 17:11:14 13° E 17:13:26 10° ESE visible
28 Nov ? 18:49:11 42° N 18:50:55 74° WNW 18:55:59 10° SSW visible
29 Nov ? 04:24:11 10° ESE 04:27:49 20° ENE 04:31:26 10° NNE visible
29 Nov ? 06:01:34 10° S 06:06:33 53° W 06:11:33 10° NNW visible
29 Nov ? 18:14:08 32° NE 18:16:14 52° E 18:21:10 10° S visible
29 Nov ? 19:54:30 20° NW 19:54:58 20° WNW 19:58:34 10° WSW visible
30 Nov ? 05:26:46 10° SSE 05:31:51 74° ENE 05:36:58 10° N visible
30 Nov ? 17:39:06 18° ENE 17:41:22 25° E 17:45:29 10° SSE visible
30 Nov ? 19:19:27 34° NW 19:20:36 39° WNW 19:25:18 10° SW visible
01 Dec ? 04:52:44 10° SE 04:57:21 35° ENE 05:01:58 10° N visible
01 Dec ? 06:32:10 10° SSW 06:36:30 28° W 06:40:52 10° NW visible
01 Dec ? 17:04:46 10° ENE 17:06:19 11° E 17:07:52 10° ESE visible
01 Dec ? 18:44:23 44° N 18:46:04 82° WNW 18:51:09 10° SSW visible
01 Dec ? 20:24:45 11° WNW 20:24:45 11° WNW 20:25:33 10° WNW visible
02 Dec ? 04:19:38 10° ESE 04:23:01 18° ENE 04:26:24 10° NNE visible
02 Dec ? 05:56:39 10° S 06:01:40 59° W 06:06:43 10° NNW visible
02 Dec ? 18:09:19 31° NE 18:11:21 47° E 18:16:14 10° S visible
02 Dec ? 19:49:40 21° NW 19:50:09 22° WNW 19:53:57 10° WSW visible
03 Dec ? 05:21:57 10° SSE 05:27:00 67° ENE 05:32:05 10° N visible
03 Dec ? 17:34:14 17° ENE 17:36:28 22° E 17:40:23 10° SE visible
03 Dec ? 19:14:36 37° NW 19:15:46 43° WNW 19:20:33 10° SW visible
04 Dec ? 04:48:01 10° SE 04:52:31 32° ENE 04:57:01 10° N visible
04 Dec ? 06:27:09 10° SSW 06:31:37 30° W 06:36:06 10° NW visible
04 Dec ? 18:39:31 44° NNE 18:41:12 90° WSW 18:46:18 10° SSW visible
04 Dec ? 20:19:52 12° WNW 20:19:52 12° WNW 20:21:25 10° W visible
05 Dec ? 04:15:05 10° E 04:18:12 17° ENE 04:21:19 10° NNE visible
05 Dec ? 05:51:44 10° S 05:56:48 65° WSW 06:01:53 10° NNW visible
05 Dec ? 18:04:26 29° NE 18:06:28 42° E 18:11:16 10° S visible
05 Dec ? 19:44:47 23° NW 19:45:20 24° WNW 19:49:19 10° WSW visible
06 Dec ? 05:17:08 10° SSE 05:22:09 60° ENE 05:27:11 10° N visible
06 Dec ? 17:29:19 16° ENE 17:31:33 20° E 17:35:16 10° SE visible
06 Dec ? 19:09:41 39° NNW 19:10:55 48° WNW 19:15:46 10° SW visible
07 Dec ? 04:43:19 10° SE 04:47:40 29° ENE 04:52:02 10° N visible
07 Dec ? 06:22:07 10° SSW 06:26:42 34° W 06:31:19 10° NNW visible
07 Dec ? 18:34:34 42° NNE 18:36:19 82° ESE 18:41:25 10° SSW visible
07 Dec ? 20:14:55 13° WNW 20:14:55 13° WNW 20:17:05 10° W visible
